Regional Weather Roundup
Issued by NWS

Home | Current Version | Previous Version | Graphics & Text | Print | Product List | Glossary On
Versions: 1 2 3 4 5 6 7 8 9 10 11 12 13 14 15 16 17 18 19 20 21 22 23 24 25 26 27 28 29 30 31 32 33 34 35 36 37 38 39 40 41 42 43 44 45 46 47 48 49 50
000
ASUS43 KBIS 270410
RWRND

NORTH DAKOTA REGIONAL WEATHER ROUNDUP
NATIONAL WEATHER SERVICE BISMARCK ND
1100 PM CDT MON SEP 26 2016

NOTE: "FAIR" INDICATES FEW OR NO CLOUDS BELOW 12,000 FEET WITH NO
SIGNIFICANT WEATHER AND/OR OBSTRUCTIONS TO VISIBILITY.


NDZ001>003-009>011-017-270500-
NORTHWEST NORTH DAKOTA

CITY           SKY/WX    TMP DP  RH WIND       PRES   REMARKS
WILLISTON      CLEAR     46  40  79 N3        30.08S
MINOT          CLEAR     48  39  71 W7        30.04F
MINOT AFB      CLEAR     44  38  78 W9        30.03F
$$

NDZ018>021-031>035-040>046-270500-
SOUTHWEST NORTH DAKOTA

CITY           SKY/WX    TMP DP  RH WIND       PRES   REMARKS
BISMARCK       CLEAR     49  39  68 NW5       30.07F
DICKINSON      CLOUDY    43  37  79 SW5       30.10S
GARRISON         N/A     47  38  71 W7        30.06F
HETTINGER ARPT CLOUDY    44  39  82 NW3       30.14F
$$

NDZ004>008-012>016-024-026-027-054-270500-
NORTHEAST NORTH DAKOTA

CITY           SKY/WX    TMP DP  RH WIND       PRES   REMARKS
GRAND FORKS    CLEAR     44  38  79 W9        29.94S
GRND FRKS AFB  CLEAR     44  37  74 NW6       29.95R
DEVILS LAKE    CLEAR     48  37  65 NW12      30.00S
$$

NDZ022-023-025-028>030-036>039-047>053-270500-
SOUTHEAST NORTH DAKOTA

CITY           SKY/WX    TMP DP  RH WIND       PRES   REMARKS
FARGO          CLEAR     48  33  56 W8        29.94S
JAMESTOWN      CLEAR     46  38  73 NW9       30.01R
$$





USA.gov is the U.S. government's official web portal to all federal, state and local government web resources and services.